#timestamp,LO_Frequency,Hit,StdDev 
1642798815.5,286047002.7,N
1642798835.4,286047002.4,N
1642798855.2,286047001.9,N
1642798875.0,286047002.2,N
1642798876.0,286047002.2,N
1642798895.8,286047002.3,N
1642798915.6,286047002.6,N
1642798935.5,286046999.8,N
1642798955.3,286047000.0,N
1642798975.1,286047000.0,N
1642798995.9,286047000.1,N
1642799015.7,286047000.0,N
1642799035.6,286047000.4,N
1642799055.4,286046999.7,N
1642799075.2,286047001.6,N
1642799095.1,286047004.2,N
1642799096.0,286047004.2,N
1642799115.8,286047004.4,N
1642799135.7,286047003.7,N
1642799155.5,286047004.0,N
1642799175.3,286047004.1,N
1642799195.2,286047003.4,N
1642799215.9,286047002.9,N
1642799235.7,286047003.2,N
1642799255.6,286047005.8,Y
1642799275.4,286047004.3,P
1642799295.3,286047001.9,N
1642799315.1,286047000.0,N
1642799316.0,286047000.0,N
1642799335.8,286047000.7,N
1642799355.7,286046999.8,N
1642799375.5,286047002.8,N
1642799395.3,286047002.7,N
1642799415.2,286047001.1,N
1642799435.0,286047000.1,N
1642799435.9,286047000.1,N
1642799455.8,286047000.5,N
1642799475.6,286047002.5,N
1642799495.4,286047001.6,N
1642799515.3,286047001.8,N
1642799535.1,286047000.6,N
1642799555.8,286047000.9,N
1642799575.7,286047001.2,N
1642799595.5,286046999.4,N
1642799615.4,286046999.6,N
1642799635.2,286047000.7,N
1642799655.0,286046998.5,N
1642799655.9,286046998.5,N
1642799675.8,286046998.1,N
1642799695.6,286047000.5,N
1642799715.4,286046998.1,N
1642799735.3,286047000.9,N
1642799755.1,286047000.7,N
1642799775.9,286046999.0,N
1642799795.7,286047001.1,N
1642799815.5,286046998.6,N
1642799835.4,286046999.0,N
1642799855.2,286046999.4,N
1642799875.0,286046998.2,N
1642799875.9,286046998.2,N
1642799895.8,286047000.0,N
1642799915.6,286046999.9,N
1642799935.5,286047000.8,N
1642799955.3,286046998.2,N
1642799975.1,286046998.2,N
1642799995.9,286046998.3,N
1642800015.7,286046998.3,N
1642800035.5,286046998.8,N
1642800055.4,286047000.1,N
1642800075.2,286046998.1,N
1642800095.1,286046998.2,N
1642800096.0,286046998.2,N
1642800115.8,286047000.8,N
1642800135.6,286046999.9,N
1642800155.5,286047000.7,N
1642800175.3,286047000.0,N
1642800195.2,286047001.2,N
1642800215.9,286047000.5,N
1642800235.7,286047000.8,N
1642800255.6,286046998.6,N
1642800275.4,286046998.1,N
1642800295.2,286046998.8,N
1642800315.1,286046998.8,N
1642800316.0,286046998.8,N
1642800335.8,286046998.2,N
1642800355.7,286046998.7,N
1642800375.5,286046999.4,N
1642800395.3,286046998.6,N
1642800415.2,286046998.4,N
1642800435.0,286046999.5,N
1642800435.9,286046999.5,N
1642800455.7,286046998.5,N
1642800475.6,286047000.6,N
1642800495.4,286046998.1,N
1642800515.3,286046998.7,N
1642800535.1,286046998.1,N
1642800536.0,286046998.1,N
1642800555.8,286047000.8,N
1642800575.7,286047000.8,N
1642800595.5,286047000.8,N
1642800615.3,286047000.6,N
1642800635.2,286046999.7,N
1642800655.0,286047000.0,N
1642800655.9,286047000.0,N
1642800675.8,286047000.4,N
1642800695.6,286046998.8,N
1642800715.4,286046998.4,N
1642800735.3,286046998.1,N
1642800755.1,286047001.0,N
1642800775.9,286047000.3,N
1642800795.7,286047000.9,N
1642800815.5,286047002.7,N
1642800835.4,286047000.1,N
1642800855.2,286047000.5,N
1642800875.0,286046999.7,N
1642800875.9,286046999.7,N
1642800895.8,286047002.0,N
1642800915.6,286047000.3,N
1642800935.5,286047000.9,N
1642800955.3,286047000.4,N
1642800975.1,286046999.7,N
1642800995.9,286047001.1,N
1642801015.7,286046998.1,N
1642801035.5,286046998.4,N
1642801055.4,286046998.4,N
1642801075.2,286047001.0,N
1642801095.1,286047000.7,N
1642801096.0,286047000.7,N
1642801115.8,286046998.2,N
1642801135.6,286046998.7,N
1642801155.5,286047001.2,N
1642801175.3,286047000.9,N
1642801195.1,286047000.6,N
1642801215.9,286046999.2,N
1642801235.7,286046997.3,N
1642801255.6,286046997.4,N
1642801275.4,286046996.8,N
1642801295.2,286046998.4,N
1642801315.1,286046999.0,N
1642801316.0,286046999.0,N
1642801335.8,286046999.6,N
1642801355.7,286046999.3,N
1642801375.5,286046997.1,N
1642801395.3,286046998.6,N
1642801415.2,286047000.9,N
1642801435.0,286047001.1,N
1642801435.9,286047001.1,N
1642801455.7,286046998.8,N
1642801475.6,286046998.5,N
1642801495.4,286046998.9,N
1642801515.3,286047000.8,N
1642801535.1,286047000.8,N
1642801536.0,286047000.8,N
1642801555.8,286047000.7,N
1642801575.7,286047000.8,N
1642801595.5,286046998.8,N
1642801615.3,286047000.9,N
1642801635.2,286046999.0,N
1642801655.0,286046999.4,N
1642801655.9,286046999.4,N
1642801675.8,286046999.6,N
1642801695.6,286046999.6,N
1642801715.4,286046998.2,N
1642801735.3,286046998.9,N
1642801755.1,286046998.1,N
1642801775.8,286047001.2,N
1642801795.7,286047000.6,N
1642801815.5,286047002.4,N
1642801835.4,286047002.3,N
1642801855.2,286047002.5,N
1642801875.0,286046999.9,N
1642801875.9,286046999.9,N
1642801895.8,286047000.2,N
1642801915.6,286046999.9,N
1642801935.5,286046998.5,N
1642801955.3,286047001.1,N
1642801975.1,286046998.1,N
1642801995.9,286047001.2,N
1642802015.7,286047001.2,N
1642802035.5,286046998.1,N
1642802055.4,286047000.6,N
1642802075.2,286047000.8,N
1642802095.1,286046998.1,N
1642802096.0,286046998.1,N
1642802115.8,286047000.8,N
1642802135.6,286046998.4,N
1642802155.5,286046996.6,N
1642802175.3,286046999.4,N
1642802195.1,286047001.2,N
1642802215.9,286047002.5,N
1642802235.7,286047000.2,N
1642802255.6,286047000.5,N
1642802275.4,286047001.0,N
1642802295.2,286047001.2,N
1642802315.1,286047000.7,N
1642802316.0,286047000.7,N
1642802335.8,286047000.3,N
1642802355.7,286047000.4,N
1642802375.5,286047000.5,N
1642802395.3,286046998.2,N
